User: anonymous   Login
Location: Favalello
(42.2939°N, 9.2706°E)
Time: 01:38:33
(UTC+00:00)
Language:

Feng Yun 1-1 Rocket - Orbit

View from above orbital plane
View from above orbital plane
View from above satellite
View from above satellite

Ground track
Ground track

The orbit data is extracted from the following two-line orbital elements,

1 19468U 88080B   20047.51360834 -.00000259 +00000-0 -13272-3 0  9991
2 19468 099.2226 058.9754 0070921 216.8305 297.4740 14.03532267609755
Epoch (UTC): 16 February 2020 12:19:35
Eccentricity: 0.0070921
inclination: 99.2226°
perigee height: 830 km
apogee height: 933 km
right ascension of ascending node: 58.9754°
argument of perigee: 216.8305°
revolutions per day: 14.03532267
mean anomaly at epoch: 297.4740°
orbit number at epoch: 60975

The dashed part of the orbit path shows where the satellite is in the earth's shadow,  

DLR